Tracking 30166 objects as of 22-Jan-2025
HD Live streaming from Space Station
objects crossing your sky now

HAISHAO 1

Track HAISHAO 1 now!
10-day predictions


NORAD ID: 62190
Int'l Code: 2024-228A
Perigee: 355.9 km
Apogee: 503.6 km
Inclination: 43.0 °
Period: 93.0 minutes
Semi major axis: 6800 km
RCS: Unknown
Launch date: December 4, 2024
Source: People's Republic of China (PRC)
Launch site: Xichang Space Center, China (XSC)
Your satellite tracking list
Your tracking list is empty




NASA's NSSDC Master Catalog

Two Line Element Set (TLE):
1 62190U 24228A   25021.90975167  .00182021  00000-0  26319-2 0  9997
2 62190  42.9904 181.1172 0108588  22.2899 338.2630 15.47979261  7475
Source of the keplerian elements: AFSPC